Regional Weather Roundup
Issued by NWS

Home | Current Version | Previous Version | Text Only | Print | Product List | Glossary Off
Versions: 1 2 3 4 5 6 7 8 9 10 11 12 13 14 15 16 17 18 19 20 21 22 23 24 25 26 27 28 29 30 31 32 33 34 35 36 37 38 39 40 41 42 43 44 45 46 47 48 49 50

118
ASUS43 KLSX 060207
RWRMO

WEATHER SUMMARY FOR MISSOURI
NATIONAL WEATHER SERVICE SPRINGFIELD MO
800 PM CST FRI FEB 05 2016

NOTE: "FAIR" INDICATES FEW OR NO CLOUDS BELOW 12,000 FEET WITH NO
       SIGNIFICANT WEATHER AND/OR OBSTRUCTIONS TO VISIBILITY.
       CURRENT SKY AND/OR WEATHER CONDITIONS ARE NOT AVAILABLE FOR
       CHILLICOTHE AND FARMINGTON.

MOZ001>031-035>038-043-044-053-054-060300-
...NORTHERN AND WESTERN MISSOURI...

CITY           SKY/WX    TMP DP  RH WIND       PRES   REMARKS
KANSAS CTY INT CLOUDY    37  24  59 E5        30.27F
KANSAS C DTWN  CLOUDY    38  24  57 CALM      30.28F
LEE`S SUMMIT   MOCLDY    38  23  55 E3        30.28S
ST JOSEPH      CLOUDY    35  24  64 SE3       30.28F
CHILLICOTHE      N/A     34  22  61 CALM      30.31F
KIRKSVILLE     CLOUDY    29  21  72 SE3       30.31F

$$
MOZ066>068-077>081-088>096-101>105-060300-
...SOUTHWEST MISSOURI...

CITY           SKY/WX    TMP DP  RH WIND       PRES   REMARKS
SPRINGFIELD    CLOUDY    35  21  56 CALM      30.29S
JOPLIN         CLOUDY    43  20  39 SE3       30.30S

$$
MOZ032>034-039>042-045>050-055>058-069>072-060300-
...CENTRAL MISSOURI...

CITY           SKY/WX    TMP DP  RH WIND       PRES   REMARKS
COLUMBIA       MOCLDY    32  17  54 E7        30.31S WCI  26
JEFFERSON CITY CLEAR     32  19  58 CALM      30.33S
ROLLA          CLEAR     31  19  61 E3        30.29F
SEDALIA        CLOUDY    37  22  54 SE7       30.30F
WHITEMAN AFB   CLOUDY    39  23  52 S6        30.27F
WARRENSBURG    MOCLDY    37  23  56 CALM      30.29S
OSAGE BEACH    PTCLDY    37  19  48 NE3       30.30F

$$
MOZ051-052-059>065-060300-
...EAST CENTRAL MISSOURI...

CITY           SKY/WX    TMP DP  RH WIND       PRES   REMARKS
ST LOUIS INTL  PTCLDY    32  17  54 E3        30.35F
SPIRIT OF STL  CLEAR     29  21  72 CALM      30.34F
ST CHARLES     CLEAR     29  24  82 E5        30.35F WCI  24

$$
MOZ072>076-082>087-097>100-106>115-060300-
...SOUTH CENTRAL AND SOUTHEAST MISSOURI...

CITY           SKY/WX    TMP DP  RH WIND       PRES   REMARKS
CAPE GIRARDEAU CLEAR     35  24  64 NE3       30.34S
FARMINGTON     CLEAR     33  22  63 CALM      30.34F
POPLAR BLUFF   CLEAR     41  24  51 S6        30.34S
WEST PLAINS    CLEAR     35  15  44 S3        30.31S

$$



USA.gov is the U.S. government's official web portal to all federal, state and local government web resources and services.